Weather in Port Blair

India     11°38′32″N   92°43′45″E
temp.,
°C
wind,
m/s
gust,
m/s
humid.,
%
clouds,
%
prec.,
mm/h
press.,
hPa
HPBL,
m
6 march, sat
sat623:30+27e45840 0.2 1013427
02:30+26ene23820 0.0 1010357
05:30+26ene34820 0.0 1012339
08:30+29e56650 0.0 1014859
11:30+30e56610 0.0 1013888
14:30+29e56630 0.0 1010760
17:30+27ene35750 0.0 1011427
20:30+26ene22800 0.0 1013321
7 march, sun
sun723:30+25ne12790 0.0 1012299
02:30+25nw11790 0.0 1011106
05:30+24nw11810 0.0 101275
08:30+29ene33600 0.0 1014640
11:30+30ene55570 0.0 1012912
14:30+30ene55590 0.0 1010841
17:30+27ene46710 0.0 1010318
20:30+26ne35790 0.0 1012348
8 march, mon
mon823:30+26ne34830 0.0 1012327
02:30+25nne33830 0.0 1010315
05:30+25ne33810 0.0 1011367
08:30+29ene45630 0.0 1014776
11:30+30ene55580 0.0 1013776
14:30+30ene55590 0.0 1011811
17:30+27ene45720 0.0 1011319
20:30+26ne23800 0.0 1013266
9 march, tue
tue923:30+26ne23800 0.0 1012289
02:30+25ne12770 0.0 1011251
05:30+25ne22770 0.0 1012242
08:30+30ene45600 0.0 1015704
11:30+30ene66590 0.0 1013711
14:30+30ene56570 0.0 1011631
17:30+27ne35700 0.0 1011292
20:30+26ne34770 0.0 1013261
10 march, wed
wed1023:30+26ne33770 0.0 1012211
02:30+26ne23790 0.0 1010241
05:30+26ne33780 0.0 1012251
08:30+30ne56580 0.0 1014689
11:30+31ene66510 0.0 1013810
14:30+31ene66520 0.0 1010753
17:30+27ne46680 0.0 1011318
20:30+26ne34750 0.0 1012292